Starlink 32481

operational
NORAD ID: 62320 Int'l Des: 2024-239 Owner: SPXS Country: US Constellation: starlink
LEOCIRCULAR

About Starlink 32481

Description loading...

Live Position

Loading 3D Globe...

Upcoming Passes

Altitude History

Altitude vs Time

uPlot chart will show altitude changes over time

Two-Line Element Set

1 62320U 24239V 25353.84848686 .00014543 00000-0 50211-3 0 9992
2 62320 53.1568 191.7245 0002120 97.8608 262.2633 15.30204341 57341
Epoch: Dec 19, 2025 • Age: 10 hours

Current Status

Altitude 479.7 km
Velocity 7.63 km/s
Sub-Earth Point -15.77°S, 166.78°W
Launch Date Dec 13, 2024
Age 1 years
Type internet

Technical Details

Classification Payload
Mass 730.00 kg
Dry Mass 700.00 kg
Total Mass 730.00 kg
Length 0.30 m
Diameter 4.10 m
Span 29.00 m
Shape Box + pan
Manufacturer SPXS
Bus Type Starlink V2M
Phase Status In Orbit
Owner/State SPXS/US

Large Constellations

Loading constellations...